Algiers Airport, Algeria

1:43 PM CET on February 28, 2015 (GMT +0100)
Houari Boumediene | Change Station
CLOSE
Current Station
Airport
Location: Algiers Airport,
Elevation: 82 ft
Nearby Weather Stations

Elev 82 ft 36.69 °N, 3.22 °E | Updated 13 minutes ago

Scattered Clouds
Scattered Clouds
55 °F
Feels Like 55 °F
N
8
Wind Variable Wind from WSW

Today
High -- | Low -- °F
--% Chance of Precip.
Yesterday
High -- | Low -- °F
Precip. -- in
7:19 AM 6:40 PM
Waxing Gibbous, 77% visible
Pressure 30.21 in
Visibility 6.2 miles
Clouds Scattered Clouds 3000 ft
Scattered Clouds 5300 ft
Dew Point 48 °F
Humidity 77%
Rainfall 0.00 in
Snow Depth Not available.
UV 6 out of 12
Pollen Not available.
Air Quality Not available.
Flu Activity Not available.
METAR DAAG 281230Z 25007KT 9999 SCT030 SCT053 13/09 Q1023

More Conditions Fewer Conditions

Pressure 30.21 in
Visibility 6.2 miles
Clouds Scattered Clouds 3000 ft
Scattered Clouds 5300 ft
Dew Point 48 °F
Humidity 77%
Rainfall 0.00 in
Snow Depth Not available.
UV 6 out of 12
Pollen Not available.
Air Quality Not available.
Flu Activity Not available.
METAR DAAG 281230Z 25007KT 9999 SCT030 SCT053 13/09 Q1023

More Conditions Fewer Conditions

10-Day Weather Forecast

Almanac

Astronomy

Feb. 28, 2015 Rise Set
Actual Time
Civil Twilight
Nautical Twilight
Astronomical Twilight
Moon
Length of Visible Light
Length of Day
Tomorrow will be .
, % of the Moon is Illuminated

Today's Extremes

Country Highs Country Lows

Community

WunderPhotos

Upload Photos

1,801,000 photos uploaded!

WunderBlogs® & News

Nearby

Air Quality

  Air Quality AQ Index Pollutant
Not available.

Snow Depth

Station Depth Elevation

Earthquake Activity

City Distance Mag. Time & Date
Minimum magnitude displayed is 2.5.

Coastal Water Temperatures

Place Temperature

Nearby Weather Stations